Regional Weather Roundup
Issued by NWS

Home | Current Version | Previous Version | Graphics & Text | Print | Product List | Glossary Off
Versions: 1 2 3 4 5 6 7 8 9 10 11 12 13 14 15 16 17 18 19 20 21 22 23 24 25 26 27 28 29 30 31 32 33 34 35 36 37 38 39 40 41 42 43 44 45 46 47 48 49 50

000
ASUS43 KTOP 270708
RWRKS

WEATHER ROUNDUP FOR KANSAS
NATIONAL WEATHER SERVICE GOODLAND KS
200 AM CDT WED MAY 27 2015

NOTE:  "FAIR" INDICATES FEW OR NO CLOUDS BELOW 12,000 FEET WITH NO
SIGNIFICANT WEATHER AND/OR OBSTRUCTIONS TO VISIBILITY.

KSZ001>006-013>018-027>032-041>047-270800-
NORTHWEST KANSAS

CITY           SKY/WX    TMP DP  RH WIND       PRES   REMARKS
GOODLAND       PTCLDY    54  51  90 SE8       30.07S
HAYS           CLEAR     55  46  71 CALM      30.04S
HILL CITY      CLEAR     51  49  92 NW5       30.05S
RUSSELL        CLEAR     58  52  80 SE5       30.02R
$$

KSZ061>065-074>080-084>089-270800-
SOUTHWEST KANSAS

CITY           SKY/WX    TMP DP  RH WIND       PRES   REMARKS
DODGE CITY     CLEAR     61  55  81 CALM      30.04S
ELKHART          N/A     59  54  84 SE6         N/A
GARDEN CITY    MOCLDY    58  55  90 E10       30.03F
GREAT BEND     MOCLDY    57  52  82 CALM      30.04R
LIBERAL        CLOUDY    64  55  72 SE9       30.04F
PRATT          CLEAR     61  59  94 S6        30.03S
$$

KSZ066>073-081>083-090>101-270800-
SOUTHEAST KANSAS

CITY           SKY/WX    TMP DP  RH WIND       PRES   REMARKS
CHANUTE        CLOUDY    63  62  97 CALM      29.97F
COFFEYVILLE    CLOUDY    65  65 100 E5        29.96F
HUTCHINSON     PTCLDY    63  55  75 N6        30.02S
MEDICINE LODGE   N/A     62  60  93 CALM      30.01S
NEWTON         CLEAR     63  55  77 N5        30.03F
PARSONS        CLOUDY    64  63  96 CALM      29.99S
WICHITA INTL   MOCLDY    65  62  90 SW6       29.99F
WICHITA JABRA  CLEAR     66  63  90 SW9       29.99S
WICHITA MCCONL CLEAR     65  63  91 S8        30.00S
WINFIELD       PTCLDY    64  61  90 NW3       29.99F
$$

KSZ007>012-019>026-033>040-048>060-102>105-270800-
NORTHEAST KANSAS

CITY           SKY/WX    TMP DP  RH WIND       PRES   REMARKS
CONCORDIA      CLEAR     58  52  80 W6        30.01R
EMPORIA        CLEAR     61  59  93 W5        29.99S
LAWRENCE       CLEAR     59  58  96 NW3       29.97S
MANHATTAN      PTCLDY    57  55  93 S5        29.99R
MARYSVILLE     CLEAR     54  52  94 CALM      30.00R
OLATHE IND     CLEAR     61  60  97 S3        29.98S
OLATHE EXE     PTCLDY    63  61  93 W3        29.96F
SALINA         CLOUDY    62  58  86 S5        30.02R
TOPEKA BILLARD PTCLDY    61  59  93 CALM      29.97F
TOPEKA FORBES  CLEAR     61  57  87 W5        29.97F
$$



USA.gov is the U.S. government's official web portal to all federal, state and local government web resources and services.